Location: Newark
(33.6439°N, 114.9881°W)
Time: 12:33:15
(UTC+00:00)

A-11 Canister half - Pass Details

Date: 25 August 2019
Orbit: 1527 x 1682 km, 47.3° (Epoch: 16 September)

Event Time Altitude Azimuth Distance (km) Brightness Sun altitude
Rises 19:26:52 0° 257° (WSW) 4,824 11.6 66.7°
Reaches altitude 10° 19:30:06 10° 262° (W) 3,860 11.3 66.8°
Maximum altitude 19:39:41 51° 337° (NNW) 2,007 10.1 67.0°
Drops below altitude 10° 19:49:31 10° 52° (NE) 3,945 11.1 66.9°
Sets 19:52:52 0° 57° (ENE) 4,937 11.5 66.9°
